QPF
0.02 0.03 0.05 0.08 0.10 0.13 0.17 0.21 0.23 0.23 0.22 0.24 0.24 0.22 0.19 0.16 0.13 0.12 0.13 0.14 0.16 0.17 0.13 0.10 0.08 0.07 0.07 0.06 0.04 0.03 0.03 0.03 0.04 0.06 0.07 0.08 0.09 0.08 0.07 0.07 0.05 0.05 0.05
0.02 0.03 0.06 0.10 0.16 0.20 0.20 0.23 0.27 0.30 0.28 0.26 0.25 0.22 0.18 0.15 0.12 0.11 0.12 0.15 0.16 0.15 0.11 0.08 0.05 0.04 0.05 0.03 0.02 0.02 0.02 0.02 0.02 0.05 0.07 0.10 0.12 0.10 0.09 0.08 0.07 0.05 0.07
0.04 0.07 0.11 0.17 0.25 0.28 0.27 0.27 0.30 0.33 0.31 0.28 0.25 0.22 0.17 0.15 0.15 0.16 0.15 0.12 0.08 0.05 0.04 0.03 0.03 0.03 0.03 0.02 0.01 0.01 0.01 0.01 0.03 0.06 0.09 0.10 0.10 0.09 0.08 0.08 0.08 0.09 0.09
0.06 0.09 0.13 0.19 0.25 0.28 0.31 0.32 0.30 0.27 0.25 0.23 0.21 0.20 0.17 0.16 0.16 0.14 0.08 0.04 0.03 0.02 0.01 0.01 0.01 0.00 0.00 0.00 0.00 0.01 0.01 0.03 0.05 0.06 0.07 0.07 0.05 0.04 0.05 0.04 0.04 0.08 0.11
0.07 0.09 0.12 0.16 0.20 0.20 0.19 0.19 0.17 0.18 0.19 0.19 0.17 0.13 0.12 0.11 0.09 0.07 0.04 0.02 0.02 0.01 0.00 0.00 0.00 0.00 0.00 0.00 0.00 0.00 0.01 0.03 0.03 0.03 0.03 0.02 0.01 0.01 0.01 0.01 0.02 0.04 0.07
0.11 0.10 0.10 0.10 0.10 0.09 0.06 0.05 0.07 0.10 0.11 0.11 0.09 0.07 0.06 0.03 0.01 0.01 0.01 0.01 0.00 0.00 0.00 0.00 0.00 0.00 0.00 0.00 0.00 0.00 0.00 0.01 0.01 0.02 0.01 0.00 0.00 0.00 0.01 0.02 0.02 0.01 0.02
0.14 0.13 0.13 0.11 0.06 0.04 0.02 0.02 0.03 0.05 0.06 0.06 0.04 0.02 0.01 0.00 0.00 0.00 0.00 0.00 0.00 0.00 0.00 0.00 0.00 0.00 0.00 0.00 0.00 0.00 0.00 0.00 0.00 0.01 0.00 0.00 0.00 0.00 0.01 0.02 0.04 0.04 0.03
0.12 0.13 0.17 0.16 0.11 0.05 0.02 0.02 0.03 0.03 0.05 0.05 0.03 0.01 0.00 0.00 0.00 0.00 0.00 0.00 0.00 0.00 0.00 0.00 0.00 0.00 0.00 0.00 0.00 0.00 0.00 0.00 0.00 0.00 0.00 0.00 0.00 0.00 0.01 0.01 0.03 0.08 0.10
0.08 0.13 0.17 0.19 0.15 0.06 0.03 0.03 0.03 0.04 0.05 0.05 0.03 0.01 0.00 0.00 0.00 0.00 0.00 0.00 0.00 0.00 0.00 0.00 0.00 0.00 0.00 0.00 0.00 0.00 0.00 0.00 0.00 0.00 0.00 0.00 0.00 0.00 0.00 0.00 0.00 0.02 0.06
0.05 0.09 0.12 0.19 0.18 0.11 0.07 0.06 0.05 0.06 0.05 0.04 0.02 0.01 0.00 0.00 0.00 0.00 0.00 0.00 0.00 0.00 0.00 0.00 0.00 0.00 0.00 0.00 0.00 0.00 0.00 0.00 0.00 0.00 0.00 0.00 0.00 0.00 0.00 0.00 0.00 0.00 0.01
0.04 0.07 0.11 0.20 0.20 0.16 0.12 0.09 0.08 0.05 0.04 0.05 0.03 0.03 0.01 0.00 0.00 0.00 0.00 0.01 0.00 0.00 0.00 0.00 0.00 0.00 0.00 0.00 0.00 0.00 0.00 0.00 0.00 0.00 0.00 0.00 0.00 0.00 0.00 0.00 0.00 0.00 0.01
0.04 0.08 0.15 0.17 0.13 0.11 0.11 0.10 0.09 0.07 0.05 0.05 0.05 0.03 0.01 0.00 0.00 0.00 0.00 0.00 0.00 0.00 0.00 0.00 0.00 0.00 0.00 0.00 0.00 0.00 0.00 0.00 0.00 0.00 0.00 0.00 0.00 0.00 0.00 0.00 0.00 0.00 0.02
0.04 0.09 0.15 0.16 0.16 0.15 0.11 0.08 0.07 0.05 0.03 0.02 0.01 0.01 0.01 0.00 0.00 0.00 0.00 0.00 0.00 0.00 0.00 0.00 0.00 0.00 0.00 0.00 0.00 0.00 0.00 0.00 0.00 0.00 0.00 0.00 0.00 0.00 0.00 0.00 0.00 0.00 0.01
0.03 0.07 0.11 0.14 0.15 0.15 0.13 0.10 0.05 0.03 0.03 0.01 0.01 0.01 0.01 0.00 0.00 0.00 0.00 0.00 0.00 0.00 0.00 0.00 0.00 0.00 0.00 0.00 0.00 0.00 0.00 0.00 0.00 0.00 0.00 0.00 0.00 0.00 0.00 0.00 0.00 0.00 0.00
0.04 0.06 0.07 0.09 0.11 0.14 0.12 0.11 0.08 0.07 0.03 0.02 0.02 0.01 0.01 0.01 0.00 0.00 0.00 0.00 0.00 0.00 0.00 0.00 0.00 0.00 0.00 0.00 0.00 0.00 0.00 0.00 0.00 0.00 0.00 0.00 0.00 0.00 0.00 0.00 0.00 0.00 0.00
0.04 0.04 0.04 0.06 0.09 0.09 0.09 0.05 0.02 0.02 0.01 0.00 0.01 0.01 0.00 0.00 0.00 0.00 0.00 0.00 0.00 0.00 0.00 0.00 0.00 0.00 0.00 0.00 0.00 0.00 0.00 0.00 0.00 0.00 0.00 0.00 0.00 0.00 0.00 0.00 0.00 0.00 0.00
0.03 0.04 0.02 0.02 0.04 0.05 0.06 0.05 0.01 0.00 0.00 0.00 0.00 0.00 0.00 0.00 0.00 0.00 0.00 0.00 0.00 0.00 0.00 0.00 0.00 0.00 0.00 0.00 0.00 0.00 0.00 0.00 0.00 0.00 0.00 0.00 0.00 0.00 0.00 0.00 0.00 0.00 0.00
0.04 0.03 0.02 0.02 0.01 0.02 0.02 0.03 0.03 0.01 0.00 0.00 0.00 0.00 0.00 0.00 0.00 0.00 0.00 0.00 0.00 0.00 0.00 0.00 0.00 0.00 0.00 0.00 0.00 0.00 0.00 0.00 0.00 0.00 0.00 0.00 0.00 0.00 0.00 0.00 0.00 0.00 0.00
0.06 0.03 0.01 0.01 0.01 0.01 0.01 0.01 0.02 0.03 0.02 0.01 0.00 0.00 0.00 0.00 0.00 0.00 0.00 0.00 0.00 0.00 0.00 0.00 0.00 0.00 0.00 0.00 0.00 0.00 0.00 0.00 0.00 0.00 0.00 0.00 0.00 0.00 0.00 0.00 0.00 0.00 0.00
0.10 0.03 0.02 0.01 0.00 0.00 0.00 0.00 0.01 0.02 0.03 0.02 0.01 0.00 0.00 0.00 0.00 0.00 0.00 0.00 0.00 0.00 0.00 0.00 0.00 0.00 0.00 0.00 0.00 0.00 0.00 0.00 0.00 0.00 0.00 0.00 0.00 0.00 0.00 0.00 0.00 0.00 0.00
0.14 0.03 0.01 0.00 0.00 0.00 0.00 0.00 0.00 0.01 0.01 0.02 0.01 0.00 0.00 0.00 0.00 0.00 0.00 0.00 0.00 0.00 0.00 0.00 0.00 0.00 0.00 0.00 0.00 0.00 0.00 0.00 0.00 0.00 0.00 0.00 0.00 0.00 0.00 0.00 0.00 0.00 0.00
0.20 0.06 0.01 0.00 0.00 0.00 0.00 0.00 0.00 0.00 0.00 0.00 0.00 0.00 0.00 0.00 0.00 0.00 0.00 0.00 0.00 0.00 0.00 0.00 0.00 0.00 0.00 0.00 0.00 0.00 0.00 0.00 0.00 0.00 0.00 0.00 0.00 0.00 0.00 0.00 0.00 0.00 0.00
0.23 0.11 0.03 0.01 0.00 0.00 0.00 0.00 0.00 0.00 0.00 0.00 0.00 0.00 0.00 0.00 0.00 0.00 0.00 0.00 0.00 0.00 0.00 0.00 0.00 0.00 0.00 0.00 0.00 0.00 0.00 0.00 0.00 0.00 0.00 0.00 0.00 0.00 0.00 0.00 0.00 0.00 0.00
0.21 0.12 0.06 0.02 0.00 0.00 0.00 0.00 0.00 0.00 0.00 0.00 0.00 0.00 0.00 0.00 0.00 0.00 0.00 0.00 0.00 0.00 0.00 0.00 0.00 0.00 0.00 0.00 0.00 0.00 0.00 0.00 0.00 0.00 0.00 0.00 0.00 0.00 0.00 0.00 0.00 0.00 0.00
0.22 0.12 0.07 0.03 0.01 0.00 0.00 0.00 0.00 0.00 0.00 0.00 0.00 0.00 0.00 0.00 0.00 0.00 0.00 0.00 0.00 0.00 0.00 0.00 0.00 0.00 0.00 0.00 0.00 0.00 0.00 0.00 0.00 0.00 0.00 0.00 0.00 0.00 0.00 0.00 0.00 0.00 0.00
0.24 0.15 0.08 0.04 0.01 0.00 0.00 0.00 0.00 0.00 0.00 0.00 0.00 0.00 0.00 0.00 0.00 0.00 0.00 0.00 0.00 0.00 0.00 0.00 0.00 0.00 0.00 0.00 0.00 0.00 0.00 0.00 0.00 0.00 0.00 0.00 0.00 0.00 0.00 0.00 0.00 0.00 0.00
MSLP
1008.33 1008.41 1008.43 1008.39 1008.27 1008.09 1007.87 1007.64 1007.43 1007.27 1007.17 1007.13 1007.16 1007.22 1007.31 1007.40 1007.49 1007.58 1007.67 1007.78 1007.90 1008.05 1008.23 1008.41 1008.59 1008.75 1008.88 1008.96 1009.00 1009.01 1008.99 1008.95 1008.92 1008.88 1008.83 1008.78 1008.70 1008.61 1008.50 1008.37 1008.26 1008.17 1008.14
1008.39 1008.48 1008.53 1008.52 1008.46 1008.33 1008.17 1007.99 1007.81 1007.65 1007.52 1007.44 1007.40 1007.39 1007.41 1007.44 1007.49 1007.56 1007.64 1007.76 1007.90 1008.07 1008.25 1008.44 1008.62 1008.77 1008.90 1008.98 1009.03 1009.06 1009.08 1009.09 1009.10 1009.10 1009.10 1009.07 1009.02 1008.93 1008.80 1008.65 1008.50 1008.37 1008.28
1008.38 1008.48 1008.56 1008.59 1008.58 1008.52 1008.42 1008.30 1008.16 1008.03 1007.91 1007.80 1007.72 1007.66 1007.63 1007.63 1007.65 1007.71 1007.80 1007.94 1008.10 1008.29 1008.49 1008.68 1008.86 1009.01 1009.12 1009.20 1009.25 1009.29 1009.32 1009.36 1009.40 1009.43 1009.46 1009.45 1009.41 1009.32 1009.19 1009.02 1008.84 1008.66 1008.52
1008.24 1008.37 1008.47 1008.55 1008.60 1008.61 1008.59 1008.54 1008.47 1008.38 1008.28 1008.19 1008.10 1008.02 1007.97 1007.95 1007.97 1008.03 1008.14 1008.29 1008.48 1008.69 1008.91 1009.11 1009.29 1009.43 1009.54 1009.60 1009.65 1009.68 1009.71 1009.75 1009.80 1009.84 1009.88 1009.88 1009.85 1009.76 1009.61 1009.43 1009.22 1009.01 1008.82
1007.96 1008.13 1008.27 1008.41 1008.51 1008.60 1008.66 1008.69 1008.69 1008.67 1008.62 1008.56 1008.49 1008.43 1008.38 1008.37 1008.39 1008.47 1008.60 1008.77 1008.99 1009.22 1009.45 1009.67 1009.85 1009.99 1010.08 1010.13 1010.16 1010.17 1010.19 1010.21 1010.25 1010.28 1010.31 1010.31 1010.26 1010.17 1010.02 1009.82 1009.60 1009.36 1009.14
1007.56 1007.77 1007.97 1008.16 1008.34 1008.50 1008.65 1008.76 1008.84 1008.89 1008.91 1008.90 1008.87 1008.84 1008.81 1008.82 1008.87 1008.96 1009.12 1009.31 1009.55 1009.80 1010.05 1010.27 1010.45 1010.58 1010.66 1010.70 1010.70 1010.69 1010.68 1010.68 1010.68 1010.69 1010.69 1010.66 1010.60 1010.49 1010.33 1010.13 1009.89 1009.65 1009.41
1007.06 1007.33 1007.59 1007.85 1008.10 1008.34 1008.56 1008.75 1008.91 1009.04 1009.12 1009.17 1009.19 1009.20 1009.22 1009.26 1009.33 1009.46 1009.63 1009.85 1010.10 1010.36 1010.61 1010.84 1011.01 1011.14 1011.20 1011.22 1011.21 1011.17 1011.12 1011.08 1011.05 1011.01 1010.97 1010.91 1010.82 1010.69 1010.52 1010.31 1010.08 1009.84 1009.60
1006.49 1006.83 1007.16 1007.50 1007.82 1008.13 1008.42 1008.69 1008.92 1009.11 1009.25 1009.36 1009.44 1009.50 1009.56 1009.64 1009.75 1009.90 1010.09 1010.32 1010.58 1010.85 1011.10 1011.32 1011.49 1011.60 1011.66 1011.66 1011.62 1011.56 1011.48 1011.40 1011.32 1011.24 1011.15 1011.05 1010.92 1010.77 1010.58 1010.38 1010.16 1009.93 1009.71
1005.90 1006.31 1006.72 1007.12 1007.51 1007.89 1008.24 1008.56 1008.85 1009.10 1009.30 1009.47 1009.60 1009.72 1009.83 1009.95 1010.09 1010.27 1010.48 1010.73 1010.99 1011.25 1011.50 1011.71 1011.87 1011.97 1012.02 1012.01 1011.96 1011.87 1011.76 1011.65 1011.52 1011.40 1011.26 1011.12 1010.96 1010.78 1010.58 1010.38 1010.17 1009.97 1009.77
1005.31 1005.78 1006.25 1006.72 1007.17 1007.60 1008.01 1008.38 1008.72 1009.01 1009.27 1009.50 1009.69 1009.86 1010.02 1010.19 1010.38 1010.59 1010.82 1011.07 1011.33 1011.58 1011.82 1012.01 1012.17 1012.26 1012.30 1012.29 1012.23 1012.13 1012.01 1011.87 1011.72 1011.56 1011.39 1011.20 1011.01 1010.81 1010.60 1010.39 1010.19 1010.01 1009.85
1004.72 1005.24 1005.76 1006.28 1006.78 1007.26 1007.71 1008.13 1008.51 1008.86 1009.17 1009.45 1009.71 1009.94 1010.17 1010.39 1010.62 1010.86 1011.11 1011.37 1011.62 1011.86 1012.08 1012.27 1012.41 1012.50 1012.53 1012.52 1012.47 1012.38 1012.26 1012.12 1011.96 1011.78 1011.59 1011.38 1011.16 1010.94 1010.72 1010.50 1010.31 1010.13 1009.98
1004.15 1004.69 1005.24 1005.79 1006.33 1006.85 1007.34 1007.80 1008.23 1008.64 1009.01 1009.36 1009.68 1009.98 1010.28 1010.56 1010.83 1011.11 1011.38 1011.64 1011.89 1012.11 1012.31 1012.48 1012.61 1012.69 1012.74 1012.74 1012.71 1012.64 1012.54 1012.42 1012.27 1012.10 1011.90 1011.69 1011.46 1011.22 1010.99 1010.76 1010.56 1010.38 1010.23
1003.59 1004.12 1004.68 1005.24 1005.81 1006.36 1006.89 1007.40 1007.88 1008.35 1008.79 1009.21 1009.62 1010.00 1010.36 1010.70 1011.03 1011.34 1011.62 1011.88 1012.12 1012.32 1012.50 1012.65 1012.76 1012.85 1012.90 1012.93 1012.93 1012.90 1012.85 1012.77 1012.65 1012.51 1012.33 1012.13 1011.90 1011.66 1011.42 1011.18 1010.96 1010.77 1010.60
1003.05 1003.54 1004.08 1004.65 1005.22 1005.80 1006.36 1006.92 1007.47 1008.01 1008.53 1009.03 1009.52 1009.98 1010.42 1010.82 1011.19 1011.52 1011.82 1012.07 1012.29 1012.47 1012.62 1012.74 1012.84 1012.92 1012.99 1013.05 1013.09 1013.12 1013.13 1013.11 1013.05 1012.96 1012.83 1012.65 1012.44 1012.21 1011.97 1011.72 1011.48 1011.26 1011.07
1002.54 1002.97 1003.47 1004.01 1004.59 1005.18 1005.78 1006.39 1007.00 1007.61 1008.22 1008.81 1009.38 1009.92 1010.43 1010.88 1011.29 1011.64 1011.93 1012.17 1012.36 1012.50 1012.62 1012.71 1012.80 1012.88 1012.97 1013.06 1013.15 1013.24 1013.32 1013.37 1013.39 1013.37 1013.29 1013.17 1013.00 1012.79 1012.55 1012.30 1012.05 1011.81 1011.58
1002.07 1002.43 1002.87 1003.37 1003.93 1004.53 1005.16 1005.82 1006.49 1007.18 1007.86 1008.53 1009.18 1009.79 1010.35 1010.85 1011.28 1011.64 1011.92 1012.13 1012.28 1012.39 1012.47 1012.54 1012.60 1012.69 1012.79 1012.92 1013.06 1013.22 1013.37 1013.50 1013.60 1013.66 1013.65 1013.59 1013.47 1013.29 1013.08 1012.84 1012.59 1012.33 1012.08
1001.64 1001.92 1002.29 1002.75 1003.28 1003.88 1004.53 1005.22 1005.95 1006.70 1007.45 1008.19 1008.91 1009.57 1010.18 1010.71 1011.15 1011.50 1011.76 1011.94 1012.05 1012.12 1012.16 1012.20 1012.26 1012.34 1012.46 1012.62 1012.81 1013.03 1013.25 1013.46 1013.64 1013.77 1013.84 1013.84 1013.78 1013.66 1013.49 1013.27 1013.03 1012.78 1012.53
1001.25 1001.45 1001.75 1002.16 1002.66 1003.24 1003.89 1004.61 1005.38 1006.17 1006.98 1007.77 1008.54 1009.25 1009.88 1010.42 1010.86 1011.20 1011.44 1011.59 1011.67 1011.70 1011.72 1011.73 1011.78 1011.86 1012.00 1012.19 1012.43 1012.69 1012.98 1013.25 1013.50 1013.70 1013.84 1013.91 1013.91 1013.85 1013.73 1013.56 1013.35 1013.13 1012.89
1000.89 1001.01 1001.25 1001.60 1002.05 1002.61 1003.26 1003.98 1004.77 1005.59 1006.43 1007.27 1008.06 1008.80 1009.45 1010.00 1010.44 1010.76 1010.98 1011.11 1011.16 1011.18 1011.17 1011.18 1011.22 1011.32 1011.47 1011.69 1011.96 1012.27 1012.59 1012.92 1013.22 1013.48 1013.68 1013.81 1013.88 1013.87 1013.81 1013.69 1013.54 1013.36 1013.16
1000.53 1000.59 1000.77 1001.06 1001.48 1002.00 1002.62 1003.34 1004.12 1004.96 1005.81 1006.67 1007.48 1008.23 1008.89 1009.44 1009.88 1010.20 1010.41 1010.53 1010.58 1010.59 1010.58 1010.60 1010.65 1010.76 1010.93 1011.17 1011.47 1011.81 1012.17 1012.53 1012.87 1013.17 1013.41 1013.60 1013.71 1013.77 1013.77 1013.72 1013.63 1013.50 1013.36
1000.17 1000.18 1000.31 1000.55 1000.91 1001.39 1001.98 1002.67 1003.44 1004.26 1005.12 1005.97 1006.79 1007.54 1008.21 1008.77 1009.21 1009.54 1009.76 1009.89 1009.95 1009.97 1009.99 1010.02 1010.10 1010.23 1010.43 1010.69 1011.01 1011.37 1011.75 1012.13 1012.49 1012.82 1013.10 1013.32 1013.48 1013.59 1013.65 1013.66 1013.64 1013.58 1013.49
999.80 999.78 999.87 1000.06 1000.37 1000.79 1001.33 1001.98 1002.71 1003.51 1004.35 1005.19 1006.00 1006.76 1007.43 1008.00 1008.46 1008.80 1009.04 1009.20 1009.28 1009.34 1009.39 1009.46 1009.57 1009.74 1009.96 1010.25 1010.59 1010.97 1011.36 1011.75 1012.13 1012.47 1012.78 1013.03 1013.23 1013.38 1013.49 1013.56 1013.60 1013.61 1013.58
999.43 999.40 999.45 999.59 999.84 1000.20 1000.68 1001.27 1001.95 1002.71 1003.52 1004.34 1005.14 1005.90 1006.57 1007.15 1007.63 1008.00 1008.27 1008.45 1008.58 1008.68 1008.78 1008.89 1009.05 1009.25 1009.51 1009.83 1010.20 1010.59 1011.00 1011.40 1011.79 1012.15 1012.47 1012.74 1012.97 1013.16 1013.32 1013.44 1013.53 1013.59 1013.62
999.09 999.05 999.06 999.15 999.34 999.63 1000.04 1000.56 1001.19 1001.89 1002.66 1003.45 1004.23 1004.97 1005.65 1006.24 1006.73 1007.12 1007.42 1007.65 1007.82 1007.97 1008.11 1008.28 1008.48 1008.73 1009.03 1009.38 1009.78 1010.19 1010.62 1011.04 1011.45 1011.82 1012.16 1012.45 1012.71 1012.93 1013.12 1013.29 1013.42 1013.53 1013.60
998.80 998.74 998.72 998.76 998.88 999.10 999.43 999.88 1000.43 1001.08 1001.79 1002.54 1003.29 1004.01 1004.68 1005.27 1005.77 1006.18 1006.51 1006.77 1006.98 1007.17 1007.36 1007.57 1007.82 1008.12 1008.47 1008.86 1009.29 1009.74 1010.20 1010.64 1011.07 1011.46 1011.82 1012.14 1012.43 1012.68 1012.90 1013.09 1013.26 1013.40 1013.51
998.54 998.47 998.42 998.40 998.46 998.61 998.86 999.23 999.71 1000.29 1000.94 1001.64 1002.35 1003.04 1003.69 1004.27 1004.77 1005.19 1005.53 1005.81 1006.05 1006.28 1006.51 1006.76 1007.06 1007.40 1007.80 1008.24 1008.71 1009.20 1009.70 1010.18 1010.64 1011.07 1011.45 1011.80 1012.11 1012.38 1012.63 1012.85 1013.05 1013.22 1013.36
Thickness
5695 5692 5689 5687 5684 5682 5679 5676 5674 5673 5674 5674 5675 5676 5676 5675 5675 5675 5675 5675 5674 5673 5674 5674 5674 5674 5675 5677 5679 5682 5683 5683 5679 5682 5686 5688 5689 5689 5690 5691 5692 5692 5692
5685 5681 5677 5674 5670 5667 5663 5659 5656 5655 5655 5657 5660 5662 5664 5666 5667 5668 5668 5669 5667 5666 5667 5667 5667 5668 5667 5668 5671 5673 5675 5677 5675 5672 5674 5676 5677 5678 5679 5681 5682 5684 5684
5676 5672 5667 5663 5658 5653 5648 5644 5640 5638 5639 5642 5645 5650 5654 5657 5658 5660 5661 5660 5660 5660 5659 5658 5658 5658 5658 5661 5663 5665 5667 5669 5668 5665 5663 5665 5666 5668 5668 5670 5671 5671 5673
5669 5664 5658 5653 5648 5642 5637 5631 5627 5626 5626 5630 5634 5639 5644 5647 5649 5651 5652 5652 5651 5651 5650 5649 5649 5649 5649 5652 5654 5655 5657 5658 5658 5656 5654 5653 5653 5656 5656 5656 5656 5658 5658
5663 5658 5653 5647 5641 5636 5630 5624 5621 5618 5620 5622 5626 5630 5635 5638 5640 5641 5642 5643 5642 5641 5642 5641 5641 5640 5641 5642 5643 5643 5645 5645 5645 5644 5641 5639 5638 5639 5640 5643 5643 5645 5646
5658 5654 5650 5644 5638 5632 5628 5623 5619 5617 5616 5618 5621 5625 5627 5628 5630 5633 5635 5635 5635 5635 5634 5634 5634 5633 5632 5633 5633 5633 5633 5632 5630 5629 5626 5625 5624 5625 5628 5630 5631 5631 5631
5655 5651 5648 5642 5636 5632 5628 5623 5619 5617 5617 5617 5618 5619 5619 5620 5622 5624 5627 5628 5627 5626 5625 5625 5627 5623 5622 5623 5624 5623 5623 5623 5621 5619 5615 5614 5614 5615 5616 5618 5620 5621 5620
5653 5649 5646 5640 5636 5631 5627 5623 5620 5618 5616 5616 5615 5614 5613 5612 5613 5615 5618 5620 5619 5618 5617 5616 5613 5611 5611 5613 5616 5615 5614 5613 5613 5612 5610 5608 5608 5607 5606 5608 5609 5612 5612
5652 5648 5645 5640 5635 5630 5625 5622 5619 5616 5614 5612 5611 5609 5607 5605 5606 5607 5608 5612 5610 5609 5607 5605 5605 5602 5601 5604 5605 5604 5604 5603 5603 5603 5603 5602 5601 5599 5598 5597 5597 5597 5597
5651 5648 5645 5640 5635 5629 5625 5620 5617 5615 5612 5610 5607 5605 5603 5601 5598 5599 5600 5604 5604 5602 5599 5596 5593 5593 5594 5594 5595 5594 5591 5592 5594 5597 5596 5595 5594 5592 5590 5586 5584 5582 5583
5652 5648 5644 5639 5634 5629 5624 5619 5615 5612 5609 5607 5603 5602 5600 5597 5593 5593 5594 5598 5599 5600 5597 5592 5587 5587 5588 5588 5588 5586 5584 5584 5586 5588 5588 5585 5583 5580 5578 5577 5575 5573 5570
5650 5646 5641 5636 5633 5629 5622 5617 5613 5610 5606 5602 5600 5598 5597 5593 5591 5589 5589 5591 5593 5595 5592 5587 5582 5582 5583 5583 5582 5581 5580 5580 5580 5578 5575 5571 5569 5566 5565 5566 5566 5565 5565
5646 5642 5638 5634 5631 5627 5621 5616 5612 5608 5606 5602 5599 5597 5595 5592 5587 5586 5586 5586 5587 5587 5584 5581 5580 5579 5578 5577 5577 5575 5573 5571 5568 5565 5561 5558 5557 5556 5556 5555 5555 5555 5557
5641 5639 5635 5631 5627 5624 5620 5617 5613 5610 5607 5605 5602 5598 5595 5591 5588 5585 5584 5583 5581 5582 5581 5577 5576 5575 5573 5571 5570 5570 5567 5563 5558 5554 5551 5549 5548 5546 5545 5544 5542 5542 5543
5635 5634 5632 5629 5625 5621 5618 5616 5614 5613 5611 5607 5604 5601 5596 5591 5589 5586 5585 5584 5583 5582 5579 5576 5574 5573 5571 5570 5570 5567 5563 5557 5553 5548 5544 5540 5538 5536 5535 5534 5532 5531 5531
5629 5629 5628 5626 5623 5619 5614 5610 5605 5608 5607 5606 5605 5601 5596 5591 5583 5581 5580 5578 5577 5575 5575 5574 5574 5573 5573 5571 5568 5564 5558 5551 5547 5544 5539 5534 5530 5528 5526 5525 5523 5521 5520
5623 5625 5626 5625 5623 5619 5614 5610 5604 5597 5597 5599 5599 5597 5592 5584 5581 5579 5577 5575 5573 5571 5571 5572 5575 5574 5572 5569 5565 5561 5555 5549 5544 5540 5534 5529 5525 5522 5520 5517 5515 5512 5512
5617 5619 5621 5623 5623 5620 5616 5612 5608 5602 5596 5592 5588 5587 5584 5580 5577 5575 5573 5571 5570 5568 5570 5572 5574 5572 5570 5566 5563 5558 5553 5548 5542 5537 5531 5526 5521 5518 5514 5511 5509 5505 5504
5609 5612 5615 5620 5620 5619 5617 5613 5609 5605 5600 5595 5585 5576 5574 5572 5569 5568 5567 5569 5571 5570 5570 5572 5573 5571 5568 5564 5560 5556 5552 5547 5540 5535 5530 5523 5519 5514 5510 5506 5503 5500 5498
5600 5606 5609 5613 5615 5615 5614 5612 5609 5604 5601 5597 5589 5581 5572 5569 5569 5565 5564 5567 5568 5571 5573 5573 5573 5571 5567 5564 5560 5556 5552 5547 5541 5535 5529 5522 5517 5511 5506 5502 5498 5494 5491
5592 5599 5602 5607 5609 5610 5610 5609 5608 5604 5600 5596 5592 5586 5577 5575 5573 5571 5568 5567 5567 5571 5574 5574 5572 5569 5566 5562 5559 5556 5552 5547 5541 5535 5528 5521 5515 5508 5503 5499 5494 5489 5485
5584 5594 5599 5602 5603 5604 5605 5606 5605 5603 5599 5595 5591 5585 5573 5576 5576 5574 5572 5570 5570 5572 5575 5573 5571 5569 5566 5563 5560 5556 5552 5547 5542 5536 5529 5522 5515 5508 5502 5496 5490 5484 5479
5580 5589 5595 5597 5598 5599 5600 5602 5602 5601 5598 5594 5591 5585 5575 5576 5577 5577 5575 5574 5573 5573 5574 5572 5569 5569 5567 5565 5562 5558 5553 5548 5543 5536 5528 5520 5514 5508 5501 5494 5487 5481 5476
5577 5585 5589 5593 5594 5596 5597 5598 5599 5599 5596 5593 5590 5586 5579 5576 5578 5580 5580 5577 5575 5574 5572 5570 5568 5567 5566 5564 5561 5557 5553 5548 5542 5536 5527 5519 5512 5505 5499 5492 5485 5479 5471
5573 5582 5586 5589 5592 5594 5596 5597 5597 5597 5595 5593 5590 5587 5583 5579 5578 5580 5581 5579 5577 5574 5572 5570 5568 5566 5565 5563 5560 5556 5551 5545 5539 5533 5525 5518 5511 5504 5496 5489 5482 5475 5468
5569 5577 5583 5587 5591 5594 5596 5596 5597 5596 5595 5594 5592 5590 5588 5584 5581 5580 5580 5579 5577 5575 5572 5571 5569 5566 5564 5562 5559 5553 5548 5542 5536 5530 5523 5516 5509 5502 5494 5486 5478 5471 5465